Вернуться в каталог

SUPERVIEW NEO-2 04

АктивенНаукаSSO
NORAD 62080·PAYLOAD·🇨🇳 China

Запущен Nov 24, 2024 с Jiuquan Satellite Launch Center

Loading…

Ближайшие Пролёты (ближайшие 24 часа)

TLE

СвежийSource: Space-Track

Эпоха: Sep 14, 2026, 08:03 UTC

1 62080U 24218C   26257.33565918 -.00000034  00000-0  15477-5 0  9992
2 62080  97.4391 263.4073 0001350  96.5672 263.5716 15.19720892 99989

Отслеживайте SUPERVIEW NEO-2 04 в реальном времени с AllMySat

Download on the App Store